DW7314 Weather Reports


Display with metric or nautical units.
time (UTC)temp
F
wind
direction
speed
MPH
gust
MPH
rain 1hr
in
rain 24hr
in
rain mn
in
humidity
%
barometer
mb
20260503195038 77 89 0.0 1.0 0.00 0.00 0.00 46 1017.7
20260503194051 77 89 0.0 2.0 0.00 0.00 0.00 45 1018.1
20260503193104 78 200 0.0 1.0 0.00 0.00 0.00 41 1018.1
20260503192054 77 201 0.0 2.0 0.00 0.00 0.00 44 1018.3
20260503191108 77 237 0.0 1.0 0.00 0.00 0.00 41 1018.4
20260503190114 77 240 0.0 4.0 0.00 0.00 0.00 46 1018.4
20260503185037 76 249 1.0 4.0 0.00 0.00 0.00 40 1018.5
20260503184051 76 351 0.0 2.0 0.00 0.00 0.00 52 1018.7
20260503183039 76 213 0.0 4.0 0.00 0.00 0.00 47 1018.8
20260503182054 76 310 1.0 5.0 0.00 0.00 0.00 46 1019.0
20260503181047 75 147 0.0 2.0 0.00 0.00 0.00 45 1019.1
20260503180113 75 330 0.0 2.0 0.00 0.00 0.00 47 1019.1
20260503175055 74 61 0.0 2.0 0.00 0.00 0.00 47 1019.2
20260503174048 75 62 1.0 2.0 0.00 0.00 0.00 46 1019.4
20260503173045 74 49 0.0 2.0 0.00 0.00 0.00 50 1019.6
20260503172039 74 136 0.0 1.0 0.00 0.00 0.00 52 1019.7
20260503171051 74 136 0.0 2.0 0.00 0.00 0.00 49 1019.8
20260503170117 73 147 0.0 4.0 0.00 0.00 0.00 49 1020.0
20260503160136 69 40 0.0 2.0 0.00 0.02 0.00 57 1020.7
20260503150119 65 360 0.0 1.0 0.00 0.07 0.00 72 1020.5
20260503140120 58 126 0.0 1.0 0.00 0.08 0.00 89 1019.8
20260503131037 54 40 0.0 0.0 0.00 0.09 0.00 100 1020.0
20260503130121 53 40 0.0 0.0 0.00 0.09 0.00 100 1020.0
20260503120120 48 40 0.0 0.0 0.00 0.29 0.00 100 1019.4
20260503023053 58 360 0.0 0.0 0.00 1.29 1.29 100 1015.1
20260503022050 59 360 0.0 0.0 0.00 1.29 1.29 100 1015.1
20260503021044 59 360 0.0 0.0 0.00 1.29 1.29 100 1014.9
20260503020127 59 360 0.0 0.0 0.00 1.29 1.29 99 1014.9
20260503015046 59 360 0.0 0.0 0.00 1.29 1.29 99 1014.7
20260503014040 60 360 0.0 0.0 0.00 1.29 1.29 98 1014.6
20260503013052 60 360 0.0 0.0 0.00 1.29 1.29 98 1014.5
20260503012045 61 360 0.0 0.0 0.00 1.29 1.29 98 1014.2
20260503011058 61 360 0.0 0.0 0.00 1.29 1.29 97 1014.1
20260503010122 61 360 0.0 0.0 0.00 1.29 1.29 96 1014.0
20260503005045 62 360 0.0 0.0 0.00 1.29 1.29 95 1013.7
20260503004041 62 360 0.0 0.0 0.00 1.29 1.29 94 1013.6
20260503003053 62 360 0.0 0.0 0.00 1.29 1.29 93 1013.4
20260503002107 63 360 0.0 0.0 0.00 1.29 1.29 92 1013.2
20260503001038 63 360 0.0 0.0 0.00 1.29 1.29 92 1013.0
20260503000142 63 228 0.0 0.0 0.00 1.29 1.29 91 1012.9
20260502235043 64 228 0.0 0.0 0.00 1.29 1.29 92 1012.8
20260502234036 64 228 0.0 0.0 0.00 1.29 1.29 92 1012.6
20260502233048 64 228 0.0 0.0 0.00 1.29 1.29 92 1012.4
20260502232042 64 228 0.0 0.0 0.00 1.29 1.29 94 1012.3
20260502231038 64 231 0.0 1.0 0.00 1.29 1.29 95 1012.2
20260502230137 64 232 0.0 0.0 0.00 1.29 1.29 96 1012.2
20260502225044 64 232 0.0 1.0 0.00 1.29 1.29 98 1012.3
20260502224059 64 231 0.0 1.0 0.00 1.29 1.29 99 1012.3
20260502223050 63 229 0.0 2.0 0.00 1.29 1.29 100 1012.2
20260502222042 63 57 0.0 0.0 0.00 1.29 1.29 100 1012.1
20260502221054 63 57 0.0 0.0 0.00 1.29 1.29 100 1012.1
20260502220140 63 54 0.0 0.0 0.00 1.29 1.29 100 1011.9
20260502215059 63 348 0.0 1.0 0.00 1.29 1.29 100 1011.8
20260502214052 62 348 0.0 1.0 0.00 1.29 1.29 100 1011.9
20260502213045 62 348 0.0 1.0 0.00 1.29 1.29 100 1011.9
20260502212059 62 147 0.0 0.0 0.00 1.29 1.29 100 1012.1
20260502211050 63 147 0.0 4.0 0.00 1.29 1.29 100 1012.0
20260502210117 63 201 0.0 1.0 0.00 1.29 1.29 100 1012.0
20260502205043 63 201 0.0 0.0 0.00 1.29 1.29 100 1011.9
20260502204037 62 201 0.0 0.0 0.00 1.29 1.29 100 1012.0
20260502203050 63 201 0.0 0.0 0.00 1.29 1.29 100 1011.9
20260502202102 62 201 0.0 1.0 0.00 1.29 1.29 100 1011.8
20260502201054 62 96 0.0 1.0 0.00 1.29 1.29 100 1011.5
20260502200118 62 96 0.0 0.0 0.00 1.29 1.29 100 1011.7